Location: Del Amo
(33.8464°N, 118.2104°W)
Time: 23:40:58
(UTC+00:00)

CAS-4A - Visible Passes

Search period start: 08 October 2024 00:00
Search period end: 18 October 2024 00:00
Orbit: 452 x 468 km, 43.0° (Epoch: 08 October)

Date Brightness Start Highest point End Pass type
(mag) Time Alt. Az. Time Alt. Az. Time Alt. Az.
08 Oct ? 12:12:30 43° SSE 12:12:30 43° SSE 12:15:13 10° SE visible
09 Oct ? 11:39:32 13° SE 11:39:32 13° SE 11:39:55 10° SE visible
12 Oct ? 03:10:55 10° SSW 03:11:27 13° SSW 03:11:27 13° SSW visible
13 Oct ? 02:35:03 10° SSW 02:37:39 22° SSE 02:37:39 22° SSE visible
14 Oct ? 01:59:05 10° S 02:01:38 18° SE 02:03:33 13° ESE visible
14 Oct ? 03:36:09 10° WSW 03:37:16 19° WSW 03:37:16 19° WSW visible
15 Oct ? 02:59:34 10° WSW 03:02:50 69° WNW 03:02:50 69° WNW visible
16 Oct ? 02:22:48 10° WSW 02:26:23 89° SE 02:28:06 29° ENE visible
17 Oct ? 01:45:51 10° SW 01:49:25 73° SSE 01:52:59 10° ENE visible
17 Oct ? 03:24:50 10° WNW 03:26:43 22° NW 03:26:43 22° NW visible
